Weather in Baikonys

Kazakhstan     52°57′20″N   76°25′19″E
temp.,
°C
wind,
m/s
gust,
m/s
humid.,
%
clouds,
%
prec.,
mm/h
press.,
hPa
HPBL,
m
23 october, sat
sat2300:00+4sw9166989 0.0 10201062
03:00+3sw91590100 0.0 1020903
06:00+4ssw81487100 0.0 1020818
09:00+5ssw101786100 0.0 1018793
12:00+8sw111768100 1.0 10161053
15:00+11wsw101554100 0.0 10161224
18:00+10wsw8155736 0.0 1017725
21:00+9wsw7156199 0.0 1018604
24 october, sun
sun2400:00+9wsw81563100 0.0 1018562
03:00+9wsw7147084 0.0 1019481
06:00+8sw6138061 0.0 1020358
09:00+8wsw612835 0.0 1021494
12:00+12wsw7106535 0.0 1021861
15:00+14w795668 0.0 10221159
18:00+11wsw3366100 0.0 102241
21:00+10ssw477086 0.0 1022113
25 october, mon
mon2500:00+9ssw51179100 0.0 1021210
03:00+9ssw6137196 0.0 1019293
06:00+8sw61460100 0.0 1018317
09:00+8sw61350100 0.0 1018382
12:00+12wsw7103897 0.0 1018614
15:00+14wsw6834100 0.0 1018825
18:00+10w3347100 0.0 101923
21:00+9sw1152100 0.0 101910
26 october, tue
tue2600:00+9sse3352100 0.0 101837
03:00+9sse3655100 0.0 1016104
06:00+8s4953100 0.0 1014147
09:00+9s51155100 0.0 1011255
12:00+13ssw61042100 0.0 1009448
15:00+14sw5937100 0.0 1008781
18:00+11w484597 0.0 1009172
21:00+7nnw81183100 0.0 1013586
27 october, wed
wed2700:00+5nnw6881100 0.1 1017829
03:00+3n5751100 0.0 1021735
06:00+2n4547100 0.0 1024622
09:00+1nne455589 0.0 1026388
12:00+3ne3440100 0.0 1027712
15:00+4ne3333100 0.0 1027852
18:00+3ne3538100 0.0 1027208
21:00+2ene3746100 0.0 1028209